Location: Unspecified
(0.0000°N, 0.0000°E)
Time: 03:20:52
(UTC+00:00)

Vanguard 2 Rocket - Pass Details

Date: 14 December 2018
Orbit: 556 x 3325 km, 32.9° (Epoch: 18 March)

Event Time Altitude Azimuth Distance (km) Brightness Sun altitude
Rises 21:29:30 0° 227° (SW) 7,270 12.2 -47.7°
Reaches altitude 10° 21:37:42 10° 209° (SSW) 5,989 11.5 -49.4°
Maximum altitude 21:48:04 17° 174° (S) 4,740 10.6 -51.4°
Enters shadow 21:55:14 12° 141° (SE) 4,584 10.4 -52.8°
Drops below altitude 10° 21:56:15 10° 137° (SE) 4,632 - -53.0°
Sets 22:01:10 0° 117° (ESE) 5,112 - -53.9°
